Location: Domont
(49.0278°N, 2.3264°E)
Time: 10:25:18
(UTC+00:00)

DX 1 - Pass Details

Date: 03 July 2022
Orbit: 617 x 629 km, 98.4° (Epoch: 09 August)

Event Time Altitude Azimuth Distance (km) Brightness Sun altitude
Rises 21:35:21 0° 10° (N) 2,932 ? -11.6°
Reaches altitude 10° 21:37:35 10° 7° (N) 2,019 ? -11.8°
Maximum altitude 21:41:52 56° 290° (WNW) 754 ? -12.2°
Drops below altitude 10° 21:46:08 10° 212° (SSW) 1,997 ? -12.5°
Enters shadow 21:48:12 - 208° (SSW) 2,845 ? -12.7°
